{"data":{"norad_id":67137,"epoch":"2026-09-20T08:49:39.657504Z","epoch_age_seconds":117526,"freshness":"FRESH","line1":"1 67137U 25301E   26263.36782011  .00000681  00000+0  11834-3 0  9996","line2":"2 67137  51.9015 297.2770 0000540  79.2904 280.8120 14.79929119 42549","mean_motion":14.79929119,"eccentricity":5.4e-5,"inclination_deg":51.9015,"raan_deg":297.277,"arg_perigee_deg":79.2904,"mean_anomaly_deg":280.812,"bstar":0.00011834,"rev_number":4254,"period_min":97.301957337864,"perigee_km":629.1694655735,"apogee_km":629.9262955406,"semimajor_km":7007.6848805571,"source":"CELESTRAK","updated_at":"2026-09-21T09:00:16.454863Z"}}